Find Starlink 11084

NORAD ID: 59717 Int'l Des: 2024-088 Owner: SPXS Country: US Constellation: starlink operational
又名: STARLINK-11084 [DTC] celestrak
LEOCIRCULAR

当前视图

正在加载3D地球...

About Starlink 11084

Starlink 11084 (NORAD 59717) is a starlink constellation satellite (v2 mini d2c) launched May 10, 2024 by SPXS of US. It operates in LEO, CIRCULAR orbit with a mass of 960.00 kg.

即将过境

Passes for default location (London). Set your location on the main map for personalized predictions.

高度历史

Loading altitude history...

两行轨道根数

1 59717U 24088K 26262.81374111 .00000178 00000-0 63275-5 0 9999
2 59717 53.1582 89.1607 0000983 81.1615 278.9514 15.69707220136766
Epoch: Sep 19, 2026 • Age: 33 hours

当前状态

高度 371.8 km
远地点 / 近地点 N/A
速度 7.69 km/s
星下点 -36.13°S, 133.49°W
发射日期 May 10, 2024
运行时间 2.3 years
类型 internet

技术详情

分类 Payload
质量 960.00 kg
干质量 910.00 kg
长度 0.30 m
跨度 29.00 m
形状 ? Box + pan
制造商 SPXS
平台类型 Starlink V2MD
阶段状态 In Orbit
所有者/国家 SPXS/US

Most Searched